Simultaneous Nadir Overpasses (SNOs) Predictions

Prediction of SNOs between METOP-C and LANDSAT-8 Satellite Orbit:

Table of predicted SNOs for the next 14.0 days since TLE Epoch: 4/20/2019
Index Date (METOP-C) Time (METOP-C) Lat,Lon (METOP-C) SZA (METOP-C ) Date (LANDSAT-8) Time (LANDSAT-8) Lat,Lon (LANDSAT-8) SZA (LANDSAT-8 ) Distance(km) Time Diff (sec)
1 04/20/2019 09:58:36 -81.06,-111.25 108.44 04/20/2019 09:59:14 -81.06,-111.34 108.44 1.59 38
2 04/20/2019 10:49:16 81.08, 56.57 71.61 04/20/2019 10:48:39 81.09, 56.73 71.62 3.09 37
3 04/23/2019 05:32:59 -81.06, -44.84 109.37 04/23/2019 05:33:27 -81.06, -44.91 109.37 1.28 28
4 04/23/2019 06:23:38 81.09, 123.30 70.72 04/23/2019 06:22:52 81.09, 123.14 70.68 2.77 46
5 04/26/2019 01:07:23 -81.06, 21.58 110.28 04/26/2019 01:07:41 -81.06, 21.50 110.29 1.64 18
6 04/26/2019 01:58:02 81.09,-170.35 69.81 04/26/2019 01:57:06 81.08,-170.49 69.77 2.55 56
7 04/28/2019 20:41:46 -81.08, 88.38 111.11 04/28/2019 20:41:54 -81.08, 88.23 111.12 2.59 8
8 04/28/2019 21:32:25 81.10,-103.62 68.97 04/28/2019 21:31:19 81.10,-103.79 68.93 2.85 66
9 05/01/2019 15:25:31 81.04, -13.65 67.91 05/01/2019 15:26:41 81.04, -13.49 67.96 2.96 70




NCC Satellite Simultaneous Nadir Overpasses (SNOs) Prediction Service
